Showing default

OPS 6073 (DMSP 4A F2), 2669

Orbit data source: Space-Track

OPS 6073 (DMSP 4A F2), 2669 is a payload satellite owned by USAF SSD (US) in SSO that was launched on Wed, 08 Feb 1967 UTC via a THOR BURNER 2 launch vehicle from the Air Force Western Test Range (AFWTR). Payload-class satellites include a variety of spacecraft equipped with specific instruments for various scientific and technological missions. These include communications satellites like Starlink; space stations such as the ISS; scientific satellites like the Hubble; Earth observation satellites from companies like Planet Labs, Umbra, and HawkEye 360; GPS; miniature CubeSats for education and research; and military/defense satellites.

Loading next visibility...
Identifier
2669, 1967-010A
Orbit
SSO
Country
Flag of USUS
Related business
Manufacturer
RCA/East Windsor
Mission
Non-operational spacecraft
Bus & Motor
DMSP BLOCK 4A, Unknown motor
Mass
79 kg wet, 79 kg dry
Launch date (UTC)
1967-02-08 (59 years ago)
Launch vehicle
THOR BURNER 2
Launch site
Air Force Western Test Range (AFWTR)
Object type
Payload
Rocket body
Debris
Shape & HBR
Unknown
Radar Cross Section
Medium (>0.1 m² and <1 m²)

Expand to show TLE details & history
Last TLE update: 22 hours ago

TLE from 22 hours ago
0 OPS 6073 (DMSP 4A F2)
1 02669U 67010A   26145.47084132  .00000117  00000-0  65083-4 0  9999
2 02669  99.1056 147.2627 0049912  87.9176 272.7718 14.28212091 81099
Epoch: 2026-05-25T11:18Z
TLE epoch observation values (Epoch: 2026-05-25T11:18:00.690Z)
Latitude
-0.00003°
Longitude
94.70167°
Altitude
799.072 km
Speed
7.455 km/s
True Right ascension
09h 49m 03s
True Declination
0° 00' 00"
Sunlit
Object was in daylight at epoch
Visualization orbit readout
Latitude
Unknown
Longitude
Unknown
Altitude
Unknown
Speed
Unknown
Apparent Right ascension
Unknown
Apparent Declination
Unknown
Sunlit
N/A
Visualization observer readout
Local Sidereal Time
18:09:43
Azimuth
Unknown
Elevation
Unknown
Doppler factor
Unknown
Orbital elements
Apogee altitude
830.682 km
Perigee altitude
759.078 km
Semi-major axis
7,173.017 km
Eccentricity
0.00499
Inclination
99.1056°
RAAN
147.2627°
Arg. of periapsis
87.9176°
True anomaly
272.20036°
Mean anomaly
272.7718°
Eccentric anomaly
272.48609°
Mean motion
3.57265 °/min
Orbital period
100.77 mins
BSTAR
0.000065083
Loading maneuver chart data...
Computing Atmospheric mass density...
Loading historical data...
Loading historical data...
Loading historical data...
Loading historical data...
Loading historical data...
Loading historical data...
Loading historical data...
Other satellites on launch #10 in the year 1967 (1967-02-08 UTC)

Documentation

Showing up to 5 results
|